This is the latest recevied weather packets stored in our database for station/object WD9EKA. If no packets are shown the sender has not sent any weather packets the latest 10 day(s).
| Time | Temp. | Humidity | Pressure | Rain* | Wind** | Luminosity | Snow |
|---|---|---|---|---|---|---|---|
| 1777572175 | 15° C | 52% | 1012.7 hPa | 0 mm | - | - | - |
| 1777571853 | 15.56° C | 49% | 1012.6 hPa | 0 mm | - | - | - |
| 1777571551 | 15° C | 47% | 1013 hPa | 0 mm | - | - | - |
| 1777571231 | 15° C | 47% | 1013 hPa | 0 mm | - | - | - |
| 1777570911 | 15° C | 46% | 1013 hPa | 0 mm | - | - | - |
| 1777570593 | 15.56° C | 44% | 1013 hPa | 0 mm | - | - | - |
| 1777570287 | 15.56° C | 48% | 1013.1 hPa | 0 mm | - | - | - |
| 1777569968 | 15° C | 45% | 1013 hPa | 0 mm | - | - | - |
| 1777569647 | 15° C | 54% | 1013.2 hPa | 0 mm | - | - | - |
| 1777569327 | 15° C | 45% | 1013.1 hPa | 0 mm | - | - | - |
| 1777569008 | 15° C | 48% | 1013.1 hPa | 0 mm | - | - | - |
| 1777568687 | 15° C | 50% | 1013.2 hPa | 0 mm | - | - | - |
| 1777568367 | 14.44° C | 56% | 1013.2 hPa | 0 mm | - | - | - |
| 1777568048 | 14.44° C | 48% | 1013.3 hPa | 0 mm | - | - | - |
| 1777567727 | 15° C | 44% | 1013.4 hPa | 0 mm | - | - | - |
| 1777567407 | 15° C | 46% | 1013.2 hPa | 0 mm | - | - | - |
| 1777567088 | 14.44° C | 49% | 1013.5 hPa | 0 mm | - | - | - |
| 1777566767 | 14.44° C | 45% | 1013.4 hPa | 0 mm | - | - | - |
| 1777566447 | 14.44° C | 47% | 1013.4 hPa | 0 mm | - | - | - |
| 1777566127 | 13.89° C | 45% | 1013.7 hPa | 0 mm | - | - | - |
| 1777565807 | 13.89° C | 45% | 1013.3 hPa | 0 mm | - | - | - |
| 1777565487 | 13.89° C | 49% | 1013.4 hPa | 0 mm | - | - | - |
| 1777565151 | 13.89° C | 45% | 1013.8 hPa | 0 mm | - | - | - |
| 1777564832 | 13.89° C | 46% | 1013.3 hPa | 0 mm | - | - | - |
| 1777564512 | 13.89° C | 47% | 1013.6 hPa | 0 mm | - | - | - |
* Rain latest hour (hover to see other rain measurements)
** Current wind speed in m/s (hover to see current wind gust speed)